Wind_Speed
9 10 10 11 10 9 9 9 9 9 10 10 9 7 6 4 3 3 3 3 4 5 6 7 9 10 10 10 10 11 11 10 10 9 9 9 8 8 10 12 12 12 12
10 10 11 10 10 9 9 9 9 9 10 10 9 8 6 4 3 3 2 2 3 3 4 5 7 8 9 10 10 11 11 10 10 9 9 8 8 8 10 12 12 11 11
10 10 11 11 11 10 10 10 9 9 9 9 9 8 7 5 4 3 2 1 1 2 3 4 5 7 8 9 10 10 10 10 10 10 10 9 9 9 10 12 12 12 12
10 10 10 11 11 11 11 10 10 9 9 9 9 8 7 6 5 4 3 1 0 1 2 3 4 5 7 9 9 10 11 10 10 10 10 10 10 10 11 11 13 13 13
10 10 10 10 11 11 11 11 10 9 9 9 8 8 7 6 5 4 3 2 1 1 2 3 4 5 6 7 8 9 10 11 10 10 10 10 10 11 12 12 13 14 13
10 10 11 11 11 12 11 11 10 9 9 9 8 8 7 6 6 5 3 3 2 1 1 2 3 4 6 7 8 9 10 11 10 11 10 11 11 11 13 13 13 14 13
9 9 10 11 12 12 12 11 10 9 9 9 8 8 7 6 6 5 4 3 2 2 1 1 2 3 4 6 7 8 9 11 12 11 11 12 12 12 13 14 14 14 13
8 8 10 11 12 12 12 11 11 10 9 9 8 8 7 7 6 6 5 4 3 3 2 2 3 4 4 5 7 7 7 8 11 11 12 13 13 13 13 14 14 15 15
7 8 9 10 11 12 12 11 11 10 9 9 9 8 7 7 7 6 5 5 4 4 3 3 3 4 5 6 6 7 8 9 10 11 12 13 13 13 14 14 14 15 15
7 8 9 10 11 12 12 12 11 11 10 9 8 8 8 8 7 6 6 5 5 5 5 4 4 5 6 7 7 7 7 8 10 11 12 13 13 14 15 15 15 16 15
7 8 9 9 10 11 12 12 11 11 10 9 9 8 8 8 7 7 6 6 6 6 6 6 6 6 6 7 7 8 8 9 11 11 12 13 14 14 15 16 17 17 17
6 7 8 9 10 11 12 12 12 11 11 10 9 9 8 8 7 7 7 7 7 7 7 7 7 8 8 9 9 9 10 11 12 13 14 14 15 16 16 17 17 18 18
6 7 8 9 10 11 12 12 12 12 11 10 10 9 9 9 8 8 8 8 8 8 9 9 9 10 10 10 11 11 12 13 13 15 16 16 17 18 18 18 19 20 20
6 7 8 8 9 11 11 12 12 12 11 11 10 10 10 9 9 9 9 9 10 10 10 10 11 11 11 12 12 13 13 14 15 17 18 19 19 19 20 20 21 22 22
6 7 8 8 9 10 11 12 12 12 11 11 11 12 11 10 10 11 11 11 11 11 11 12 12 13 14 14 15 15 16 17 17 19 20 20 20 21 22 22 22 23 23
7 8 8 8 9 10 11 12 13 13 12 12 12 12 12 11 11 12 12 12 12 12 13 14 15 16 16 17 17 18 19 19 19 20 21 21 23 23 24 24 24 24 25
7 8 9 9 9 10 11 12 13 14 14 13 14 14 14 14 14 13 13 14 14 15 15 16 17 18 19 20 21 22 21 22 22 23 23 24 24 25 25 26 26 26 26
8 9 10 10 10 11 12 13 14 14 15 15 16 16 16 16 16 16 15 16 17 17 18 18 19 20 21 22 23 24 24 24 24 25 26 26 27 27 27 28 28 28 28
10 10 11 12 12 13 13 14 15 15 16 17 17 18 18 18 18 18 18 19 20 20 20 21 21 22 23 24 24 25 25 26 27 27 27 28 29 29 30 30 30 30 30
10 11 12 12 14 14 15 16 17 17 18 18 19 20 20 20 20 20 21 22 22 23 24 24 25 25 26 26 27 27 27 28 29 30 30 30 30 30 31 32 33 33 32
12 13 13 15 16 16 17 18 19 19 20 20 21 22 22 23 23 24 24 25 25 26 27 27 28 28 29 30 30 30 31 31 32 33 33 33 33 33 34 34 34 35 35
14 15 16 17 17 18 19 20 21 21 22 22 23 24 25 26 26 27 27 28 28 28 29 30 30 31 32 33 33 34 35 35 35 36 36 36 37 36 37 37 38 38 38
16 17 18 19 20 21 22 22 23 23 24 24 25 26 27 28 28 29 30 31 31 31 32 33 34 35 35 36 37 37 38 39 39 39 39 39 40 40 40 40 40 41 41
19 19 20 21 22 23 24 24 25 25 26 27 28 29 30 30 31 32 32 33 34 35 36 37 38 39 39 40 40 41 41 41 41 41 41 41 41 41 41 42 42 42 43
20 21 22 23 24 25 26 26 27 28 29 29 30 31 32 32 33 34 35 35 36 37 39 40 41 42 43 43 44 43 43 42 41 41 42 42 42 42 43 42 43 44 45
22 23 24 25 26 27 28 28 29 30 31 32 32 33 34 35 36 37 37 38 39 40 41 43 44 45 46 46 46 45 44 44 43 43 44 45 45 45 44 44 44 45 46
Wind_Direction
357 357 356 356 356 356 355 356 355 356 357 356 354 352 350 344 335 315 285 265 249 239 232 228 226 221 217 216 213 217 219 220 218 218 219 218 220 207 200 193 193 193 193
359 359 359 358 0 2 3 3 1 1 360 360 0 1 360 355 354 345 316 270 245 237 229 227 224 219 217 215 216 216 219 216 216 217 215 211 208 198 191 191 191 194 196
3 0 0 2 3 5 6 5 4 3 3 3 6 6 6 5 7 3 347 315 241 226 220 219 217 214 213 216 218 219 221 216 216 217 214 211 203 198 195 196 200 202 202
8 6 6 9 10 10 9 7 5 4 5 7 9 10 10 13 16 14 7 360 233 227 226 227 218 219 215 218 219 221 221 218 218 216 212 210 208 206 201 203 204 205 203
13 14 15 15 14 14 12 12 10 8 9 10 11 13 16 18 16 17 18 23 19 274 249 242 228 225 223 224 223 224 220 219 221 220 217 215 216 213 211 211 212 210 209
16 19 20 20 18 16 15 15 14 12 11 11 12 14 17 19 18 16 13 16 15 348 271 258 241 231 230 227 228 230 230 227 227 227 223 221 218 219 219 221 217 213 218
15 19 21 20 19 18 18 17 15 14 14 12 13 14 17 20 17 15 12 8 6 354 321 293 247 240 242 237 233 232 236 232 228 229 230 226 224 226 226 223 220 221 224
12 16 17 17 17 16 15 15 15 15 16 14 15 18 21 17 14 11 7 0 356 337 311 292 272 253 257 256 247 235 229 229 227 230 234 230 227 229 230 229 230 230 229
6 8 10 14 15 14 14 14 13 13 13 14 15 17 20 18 14 10 5 357 349 337 323 305 290 277 271 266 262 251 235 232 233 237 239 237 235 234 232 231 234 233 231
2 5 9 14 15 15 14 13 12 11 11 10 9 12 11 11 9 6 1 350 338 328 319 309 297 287 281 270 268 269 258 247 240 240 243 242 241 240 236 235 236 238 235
2 4 12 14 12 13 13 11 10 9 9 7 5 4 4 2 359 356 352 347 338 328 317 307 299 294 294 285 272 272 270 265 253 249 250 248 248 248 244 242 240 240 236
357 2 8 12 12 10 11 11 10 8 6 4 2 359 356 355 353 348 344 342 335 327 317 307 302 297 298 291 279 274 274 270 261 256 254 252 252 252 251 249 247 245 243
346 354 0 4 5 6 6 7 7 5 2 360 358 354 350 348 345 341 334 328 323 319 315 307 299 295 294 291 284 277 272 272 269 263 258 256 255 254 253 250 249 249 249
337 344 350 353 355 357 359 2 1 359 358 355 351 347 341 339 336 334 329 321 315 313 310 306 301 297 295 294 290 282 276 274 271 268 264 261 259 258 257 254 254 253 251
326 337 341 343 343 346 349 352 354 353 351 349 347 346 341 335 330 328 325 321 316 310 306 303 301 298 295 292 290 285 280 276 274 271 268 266 263 261 260 258 257 257 255
310 323 332 333 335 338 340 343 346 346 345 344 344 343 340 335 331 328 323 319 316 310 306 301 298 296 295 293 290 286 282 279 277 274 271 268 265 263 262 259 257 258 256
304 313 322 325 327 330 334 338 340 340 337 335 336 336 335 332 329 326 323 318 315 311 307 302 299 296 295 294 291 287 284 280 277 276 274 271 269 266 263 261 259 259 258
298 307 315 317 319 321 325 328 331 332 331 329 329 329 329 327 325 322 320 318 315 312 308 303 299 297 296 294 291 287 284 281 279 278 276 272 269 267 266 264 261 260 259
295 302 308 312 314 316 319 322 324 324 324 323 323 323 322 321 320 318 316 315 314 312 309 305 302 299 298 296 293 289 285 282 279 279 277 273 269 267 265 264 262 261 260
294 302 304 307 310 314 316 317 318 319 319 319 319 318 317 316 315 314 313 312 311 310 307 305 303 300 299 297 293 290 287 283 281 279 278 274 270 268 266 264 262 260 259
295 297 301 305 308 310 312 313 313 314 314 314 314 314 313 312 311 311 310 309 308 307 306 304 302 300 298 295 292 289 287 284 281 279 277 275 271 268 266 265 263 261 259
293 297 301 304 306 308 310 310 310 311 311 311 311 311 310 310 310 309 309 308 307 305 304 303 302 300 298 295 292 289 287 285 282 278 275 274 271 269 267 266 265 262 260
294 297 300 302 305 307 308 309 309 309 310 311 310 310 309 309 308 308 308 307 306 305 305 304 303 302 300 296 294 292 289 286 283 279 275 273 271 269 267 266 265 262 260
294 297 299 302 303 304 305 307 308 309 309 309 309 309 308 308 307 307 306 306 306 306 305 305 303 301 300 298 296 294 291 288 284 280 276 274 272 270 269 266 264 262 260
292 294 297 300 302 303 304 305 306 306 308 308 309 308 307 307 306 306 306 306 305 305 304 304 302 301 300 299 298 295 292 288 284 281 278 275 273 271 269 267 266 264 262
291 294 296 299 301 303 303 304 305 305 306 306 307 307 307 307 306 306 305 305 304 304 304 303 302 301 300 299 298 295 292 288 285 281 278 275 274 272 270 268 267 266 263
Height
5875 5873 5872 5870 5868 5867 5865 5864 5862 5861 5859 5858 5856 5855 5854 5854 5854 5854 5854 5854 5855 5856 5857 5859 5860 5862 5864 5866 5868 5870 5872 5873 5875 5876 5877 5877 5876 5875 5876 5879 5884 5888 5891
5874 5873 5871 5870 5868 5866 5864 5863 5862 5860 5859 5857 5856 5855 5854 5853 5853 5853 5853 5854 5854 5855 5857 5858 5859 5861 5863 5865 5867 5869 5871 5873 5874 5876 5877 5877 5876 5876 5877 5881 5885 5889 5891
5874 5872 5871 5869 5868 5866 5864 5863 5861 5860 5859 5857 5856 5855 5854 5853 5853 5853 5853 5853 5854 5855 5856 5858 5859 5861 5863 5865 5866 5868 5870 5872 5874 5875 5876 5877 5878 5879 5880 5883 5886 5889 5891
5874 5872 5871 5869 5867 5866 5864 5862 5861 5860 5858 5857 5856 5855 5854 5854 5853 5853 5853 5854 5854 5855 5856 5858 5859 5860 5862 5864 5866 5868 5869 5871 5873 5874 5875 5877 5878 5880 5882 5884 5886 5889 5891
5874 5873 5871 5869 5867 5866 5864 5862 5861 5860 5858 5857 5856 5855 5854 5854 5854 5854 5854 5854 5855 5856 5857 5858 5859 5860 5862 5864 5865 5867 5868 5870 5872 5873 5875 5876 5878 5880 5882 5884 5886 5888 5890
5875 5873 5871 5870 5868 5866 5864 5862 5861 5859 5858 5857 5856 5855 5855 5854 5854 5854 5854 5855 5855 5856 5857 5858 5859 5860 5862 5863 5865 5866 5867 5868 5870 5872 5874 5876 5877 5879 5881 5883 5885 5887 5889
5875 5873 5872 5870 5868 5866 5864 5862 5861 5860 5859 5857 5857 5856 5855 5855 5855 5855 5855 5855 5855 5856 5857 5858 5859 5860 5861 5863 5864 5865 5866 5866 5868 5871 5873 5875 5876 5878 5880 5882 5883 5885 5887
5875 5874 5872 5871 5869 5867 5865 5863 5861 5860 5859 5858 5857 5856 5856 5856 5855 5855 5855 5855 5856 5856 5857 5858 5859 5860 5861 5862 5863 5864 5864 5864 5867 5870 5872 5874 5875 5877 5879 5881 5882 5884 5886
5875 5874 5873 5871 5869 5868 5866 5864 5862 5860 5859 5858 5857 5857 5857 5856 5856 5856 5856 5856 5856 5856 5857 5858 5859 5860 5861 5862 5863 5863 5864 5865 5866 5868 5870 5872 5874 5876 5877 5878 5880 5882 5883
5875 5873 5872 5871 5870 5868 5866 5864 5862 5861 5860 5859 5858 5857 5857 5856 5856 5856 5856 5856 5856 5856 5857 5857 5858 5859 5860 5861 5862 5863 5863 5864 5866 5867 5869 5870 5871 5873 5875 5876 5878 5880 5881
5874 5873 5872 5871 5869 5868 5867 5865 5863 5861 5860 5859 5858 5858 5857 5857 5856 5856 5856 5856 5856 5856 5856 5857 5858 5858 5859 5860 5861 5861 5862 5863 5864 5865 5866 5868 5869 5870 5872 5874 5875 5877 5878
5874 5873 5872 5871 5869 5868 5867 5865 5864 5862 5861 5859 5859 5858 5857 5857 5856 5856 5856 5856 5856 5855 5855 5856 5857 5857 5857 5858 5859 5860 5860 5861 5862 5863 5864 5865 5866 5867 5869 5870 5872 5873 5874
5873 5872 5871 5871 5869 5868 5867 5865 5864 5862 5861 5860 5859 5858 5857 5857 5856 5856 5855 5855 5855 5855 5854 5854 5855 5855 5855 5856 5856 5857 5858 5858 5859 5860 5860 5861 5863 5864 5865 5866 5868 5869 5870
5872 5871 5871 5870 5869 5868 5867 5865 5864 5863 5861 5860 5859 5858 5857 5856 5855 5855 5854 5854 5854 5853 5853 5853 5853 5853 5853 5853 5853 5854 5854 5855 5855 5856 5857 5857 5858 5859 5860 5861 5863 5864 5865
5870 5870 5869 5869 5868 5867 5866 5865 5864 5862 5861 5860 5858 5857 5856 5855 5854 5853 5852 5852 5852 5851 5851 5851 5850 5850 5850 5850 5850 5850 5851 5851 5851 5852 5852 5853 5853 5854 5855 5856 5857 5859 5860
5868 5868 5868 5868 5867 5866 5865 5864 5863 5861 5860 5859 5857 5856 5854 5853 5852 5851 5850 5849 5849 5849 5848 5848 5847 5847 5846 5846 5846 5846 5846 5846 5846 5847 5847 5847 5848 5848 5849 5850 5851 5853 5854
5866 5866 5866 5866 5866 5865 5864 5863 5861 5860 5859 5857 5856 5854 5853 5852 5850 5849 5848 5847 5846 5845 5845 5844 5843 5843 5842 5842 5841 5841 5841 5841 5841 5841 5841 5841 5842 5842 5843 5844 5845 5846 5847
5864 5864 5864 5864 5863 5863 5862 5861 5859 5858 5857 5855 5854 5852 5851 5849 5848 5846 5845 5843 5842 5841 5840 5839 5838 5838 5837 5836 5835 5834 5834 5834 5834 5834 5834 5834 5835 5835 5836 5836 5837 5838 5840
5862 5862 5862 5862 5861 5860 5859 5858 5857 5856 5854 5853 5851 5849 5848 5846 5844 5843 5841 5839 5838 5836 5835 5834 5833 5832 5830 5829 5828 5827 5827 5826 5826 5826 5826 5826 5826 5827 5827 5828 5829 5830 5831
5859 5859 5859 5859 5858 5857 5856 5855 5854 5852 5851 5849 5847 5846 5844 5842 5840 5838 5836 5834 5832 5831 5829 5827 5826 5824 5823 5821 5820 5819 5818 5817 5817 5816 5816 5816 5816 5817 5818 5818 5820 5820 5822
5857 5857 5856 5856 5855 5854 5852 5851 5850 5848 5846 5845 5843 5841 5839 5837 5835 5832 5830 5828 5826 5824 5822 5820 5818 5816 5814 5812 5811 5809 5808 5807 5807 5805 5805 5805 5805 5806 5806 5807 5808 5809 5811
5854 5854 5853 5852 5851 5850 5848 5847 5845 5844 5842 5840 5838 5835 5833 5830 5828 5826 5823 5821 5818 5816 5813 5811 5809 5807 5804 5802 5800 5798 5796 5795 5795 5794 5792 5793 5793 5793 5794 5795 5795 5797 5798
5851 5850 5849 5848 5846 5845 5843 5842 5840 5838 5836 5834 5832 5829 5827 5824 5821 5819 5816 5813 5810 5807 5804 5802 5799 5796 5793 5791 5788 5786 5783 5781 5781 5779 5778 5779 5779 5779 5780 5781 5781 5783 5784
5846 5845 5844 5843 5841 5840 5838 5836 5834 5832 5830 5828 5825 5822 5820 5817 5814 5811 5808 5805 5801 5798 5795 5792 5788 5785 5781 5778 5774 5771 5769 5767 5766 5764 5762 5763 5763 5764 5765 5765 5766 5767 5769
5841 5840 5839 5837 5836 5834 5832 5830 5828 5826 5823 5820 5817 5814 5811 5808 5805 5802 5799 5796 5792 5789 5785 5781 5777 5772 5768 5764 5760 5757 5754 5751 5750 5749 5747 5746 5747 5747 5749 5750 5750 5751 5752
5836 5835 5833 5831 5829 5827 5825 5823 5820 5818 5816 5813 5810 5806 5802 5799 5795 5792 5788 5785 5782 5778 5774 5770 5765 5760 5755 5751 5746 5742 5738 5736 5734 5734 5732 5730 5730 5730 5732 5734 5734 5734 5735